Miscellaneous Local Product
Issued by NWS Hastings, NE

Home | Current Version | Previous Version | Text Only | Print | Product List | Glossary On
Versions: 1 2 3 4 5 6 7 8 9 10 11 12 13 14 15 16 17 18 19 20 21 22 23 24 25 26 27 28 29 30 31 32 33 34 35 36 37 38 39 40 41 42 43 44 45 46 47 48 49 50
000
AXUS43 KGID 090402
MISGRI

GID CWA HOURLY WEATHER ROUNDUP
NATIONAL WEATHER SERVICE HASTINGS NE
1000 PM CST THU DEC 08 2016

NOTE: "FAIR" INDICATES FEW OR NO CLOUDS BELOW 12,000 FEET WITH NO
SIGNIFICANT WEATHER AND/OR OBSTRUCTIONS TO VISIBILITY.

...SOUTH CENTRAL NEBRASKA...

CITY           SKY/WX    TMP DP  RH WIND       PRES   REMARKS
GRAND ISLAND   CLEAR      8   2  76 CALM      30.60S
HASTINGS       CLEAR      7   0  73 SW3       30.60S
KEARNEY        CLEAR     10   0  61 CALM      30.59R
ORD            CLEAR      1  -5  75 CALM      30.57F
YORK           CLEAR      7   1  78 NW3       30.61S
AURORA         CLEAR      7   0  74 CALM      30.60S
LEXINGTON      CLEAR      7   1  76 CALM      30.55F
HOLDREGE       CLEAR     10   1  68 W5        30.57S WCI   1
HEBRON         CLEAR      9   5  84 CALM      30.63F

...NEBRASKA PANHANDLE...

CITY           SKY/WX    TMP DP  RH WIND       PRES   REMARKS
CHADRON        CLOUDY    -1  -8  72 N5        30.39F WCI -11
ALLIANCE       CLOUDY     2  -4  76 SE9       30.33F WCI -13
SCOTTSBLUFF    CLOUDY     6  -1  73 E9        30.31F WCI  -8
SIDNEY         CLOUDY     7   1  76 S9        30.32F WCI  -7

...WESTERN AND NORTH CENTRAL NEBRASKA...

CITY           SKY/WX    TMP DP  RH WIND       PRES   REMARKS
VALENTINE      CLOUDY    -4 -10  75 SW7       30.51F WCI -18
AINSWORTH      CLOUDY    -1  -5  83 CALM      30.51F
ONEILL         CLEAR      3  -1  81 N3        30.58S
BROKEN BOW     CLOUDY    -1  -6  79 CALM      30.53S
IMPERIAL       CLOUDY     1  -4  79 SE6       30.46F WCI -10
NORTH PLATTE   CLOUDY     2  -4  76 E3        30.51F
MCCOOK         CLOUDY     3  -2  79 W6        30.54F WCI  -8

...EASTERN NEBRASKA...

CITY           SKY/WX    TMP DP  RH WIND       PRES   REMARKS
NORFOLK        CLEAR      7   0  73 NW6       30.61F WCI  -3
SO SIOUX CITY  CLEAR     14   6  70 NW10      30.64S WCI   1
TEKAMAH        CLEAR     13   5  70 NW10      30.65S WCI   0
COLUMBUS       CLEAR      9   0  66 NW7       30.61F WCI  -3
ALBION         CLEAR      5  -1  76 CALM      30.60S
OMAHA EPPLEY   CLEAR     14   5  67 N6        30.65S WCI   5
OFFUTT AFB     CLEAR     15   7  72 NW8       30.64S WCI   3
MILLARD        CLEAR     19   8  62 NW3       30.65S
LINCOLN        CLEAR      8   3  80 N5        30.65F WCI   0
NEBRASKA CITY  CLEAR     15   5  63 NW5       30.63S WCI   8
BEATRICE       CLEAR     11   5  77 CALM      30.64S
FALLS CITY     CLEAR     13   8  81 W7        30.65S WCI   3

...NORTHERN KANSAS...

CITY           SKY/WX    TMP DP  RH WIND       PRES   REMARKS
GOODLAND       CLOUDY     8   1  73 S7        30.44F WCI  -3
HILL CITY      CLOUDY     1  -4  79 CALM      30.59S
NORTON         CLEAR      5  -2  72 SW5       30.57  WCI  -4
PHILLIPSBURG   CLEAR      5   0  78 W5        30.62R WCI  -4
SMITH CENTER   CLEAR     10   3  72 CALM      30.63S
BELOIT         CLEAR      9   5  85 CALM      30.64S
HAYS           CLOUDY    10   4  76 W3        30.61F
RUSSELL        CLEAR     13   5  70 CALM      30.60F
CONCORDIA      CLEAR     15   7  70 SW6       30.63F WCI   6
SALINA         CLEAR     16   8  71 CALM      30.67S
TOPEKA         CLEAR     17   9  70 W3        30.67S



USA.gov is the U.S. government's official web portal to all federal, state and local government web resources and services.